Location: Cortos
(40.7190°N, 4.5893°W)
Time: 04:00:36
(UTC+00:00)

Delta 2 Rocket - Pass Details

Date: 05 July 2020
Orbit: 416 x 807 km, 35.6° (Epoch: 11 August)

Event Time Altitude Azimuth Distance (km) Brightness Sun altitude
Rises 22:01:00 0° 262° (W) 2,372 6.9 -18.5°
Reaches altitude 10° 22:03:17 10° 251° (WSW) 1,488 5.7 -18.8°
Enters shadow 22:05:00 23° 228° (SW) 942 4.4 -18.9°
